Nainital, Pantnagar Airport (VIPT)

NamePantnagar Airport
CityNainital
CountryIndia
ICAOVIPT
IATAPGH
Altitude233 m
CoordinatesGoogle Map
Live Air TrafficLiveATC.net
METARVIPT 040700Z 27009KT 1500 HZ NSC 27/17 Q1014
2019-11-04 07:00:00 Wind: West (270°) 4.63 m/s - Visibility: 1500 m - Weather: Haze - Temperature: 27 °C - Dew point: 17 °C - Humidity: 54.4% - Pressure: 1014 hPa

Sorry, no flights used the airport in this database.